FW4317 Weather Reports


Display with metric or nautical units.
time (UTC)temp
F
wind
direction
speed
MPH
gust
MPH
rain 1hr
in
rain 24hr
in
rain mn
in
humidity
%
barometer
mb
20260505051536 69 144 3.0 10.0 0.00 0.00 0.00 70 1001.9
20260505050516 69 161 2.0 8.0 0.00 0.00 0.00 70 1001.9
20260505041516 69 154 1.0 5.0 0.00 0.00 0.00 68 1002.2
20260505040517 69 156 3.0 9.0 0.00 0.00 0.00 68 1001.9
20260505035517 69 160 3.0 11.0 0.00 0.00 0.00 68 1002.2
20260505034517 69 153 4.0 9.0 0.00 0.00 0.00 67 1002.5
20260505033517 69 158 1.0 10.0 0.00 0.00 0.00 66 1002.6
20260505032517 70 155 3.0 9.0 0.00 0.00 0.00 65 1002.7
20260505031557 70 166 2.0 9.0 0.00 0.00 0.00 65 1002.9
20260505030517 70 134 2.0 6.0 0.00 0.00 0.00 64 1003.1
20260505025517 70 139 2.0 6.0 0.00 0.00 0.00 64 1003.0
20260505024517 71 149 2.0 8.0 0.00 0.00 0.00 63 1003.2
20260505023537 71 141 3.0 8.0 0.00 0.00 0.00 63 1003.0
20260505022557 71 170 2.0 7.0 0.00 0.00 0.00 62 1002.8
20260505021517 71 139 2.0 6.0 0.00 0.00 0.00 61 1002.9
20260505020517 72 151 3.0 10.0 0.00 0.00 0.00 61 1002.9
20260505015517 72 156 2.0 7.0 0.00 0.00 0.00 61 1002.9
20260505014516 72 159 3.0 8.0 0.00 0.00 0.00 61 1002.8
20260505013537 72 149 2.0 6.0 0.00 0.00 0.00 61 1002.7
20260505012516 73 142 2.0 7.0 0.00 0.00 0.00 60 1002.7
20260505011517 73 150 1.0 8.0 0.00 0.00 0.00 59 1002.5
20260505010517 74 164 3.0 8.0 0.00 0.00 0.00 58 1002.6
20260505005517 74 150 2.0 8.0 0.00 0.00 0.00 59 1002.6
20260505004517 74 150 1.0 7.0 0.00 0.00 0.00 59 1002.5
20260505003537 75 178 1.0 7.0 0.00 0.00 0.00 58 1002.6
20260505002537 75 163 2.0 6.0 0.00 0.00 0.00 57 1002.6
20260505001517 75 170 1.0 8.0 0.00 0.00 0.00 57 1002.8
20260505000517 76 166 1.0 9.0 0.00 0.00 0.00 57 1002.8
20260504235517 76 157 1.0 5.0 0.00 0.00 0.00 56 1002.8
20260504234517 76 166 2.0 7.0 0.00 0.00 0.00 55 1002.7
20260504233517 76 197 1.0 8.0 0.00 0.00 0.00 55 1002.8
20260504232517 77 158 1.0 6.0 0.00 0.00 0.00 56 1002.8
20260504231517 77 156 1.0 6.0 0.00 0.00 0.00 55 1002.9
20260504230517 77 153 2.0 11.0 0.00 0.00 0.00 55 1002.9
20260504225516 77 169 1.0 5.0 0.00 0.00 0.00 55 1003.0
20260504224516 77 163 2.0 11.0 0.00 0.00 0.00 54 1003.0
20260504223516 78 177 1.0 10.0 0.00 0.00 0.00 54 1002.8
20260504222516 78 178 2.0 10.0 0.00 0.00 0.00 53 1002.8
20260504221517 78 175 1.0 10.0 0.00 0.00 0.00 54 1002.7
20260504220517 78 172 2.0 10.0 0.00 0.00 0.00 54 1002.9
20260504215516 78 167 2.0 10.0 0.00 0.00 0.00 54 1003.1
20260504214517 78 165 2.0 10.0 0.00 0.00 0.00 53 1003.0
20260504213517 78 171 2.0 11.0 0.00 0.00 0.00 53 1003.2
20260504212517 78 165 3.0 13.0 0.00 0.00 0.00 54 1003.2
20260504211517 78 163 2.0 10.0 0.00 0.00 0.00 53 1003.1
20260504210516 79 162 4.0 16.0 0.00 0.00 0.00 53 1003.3
20260504205537 79 174 2.0 15.0 0.00 0.00 0.00 52 1003.4
20260504204517 78 150 2.0 12.0 0.00 0.00 0.00 53 1003.5
20260504203537 78 159 3.0 11.0 0.00 0.00 0.00 53 1003.7
20260504202517 79 176 5.0 17.0 0.00 0.00 0.00 52 1004.0
20260504201516 79 164 2.0 16.0 0.00 0.00 0.00 53 1004.1
20260504200517 79 173 5.0 15.0 0.00 0.00 0.00 53 1004.3
20260504195516 79 160 5.0 17.0 0.00 0.00 0.00 52 1004.3
20260504194537 79 169 6.0 16.0 0.00 0.00 0.00 52 1004.4
20260504193517 79 169 6.0 15.0 0.00 0.00 0.00 52 1004.5
20260504192517 79 185 4.0 10.0 0.00 0.00 0.00 52 1004.6
20260504191517 79 159 4.0 17.0 0.00 0.00 0.00 52 1004.7
20260504190517 79 163 4.0 11.0 0.00 0.00 0.00 51 1004.8
20260504185517 79 171 4.0 14.0 0.00 0.00 0.00 51 1005.1
20260504184515 80 166 3.0 16.0 0.00 0.00 0.00 53 1005.3
20260504183516 80 201 3.0 12.0 0.00 0.00 0.00 52 1005.3
20260504182516 80 170 4.0 15.0 0.00 0.00 0.00 51 1005.5
20260504181536 79 180 3.0 15.0 0.00 0.00 0.00 52 1005.6
20260504180517 79 157 4.0 16.0 0.00 0.00 0.00 53 1005.8
20260504175517 78 169 5.0 13.0 0.00 0.00 0.00 53 1006.0
20260504174516 78 174 3.0 14.0 0.00 0.00 0.00 52 1006.2
20260504173517 78 174 3.0 13.0 0.00 0.00 0.00 53 1006.3
20260504172517 78 178 3.0 11.0 0.00 0.00 0.00 52 1006.3
20260504171517 78 168 3.0 15.0 0.00 0.00 0.00 52 1006.4
20260504170517 78 167 4.0 12.0 0.00 0.00 0.00 51 1006.4
20260504150517 73 182 1.0 12.0 0.00 0.00 0.00 52 1007.7
20260504140517 68 182 1.0 5.0 0.00 0.00 0.00 58 1007.9
20260504130536 64 184 2.0 11.0 0.00 0.00 0.00 63 1008.2
20260504110515 62 199 0.0 4.0 0.00 0.00 0.00 62 1008.8
20260504100517 64 199 1.0 5.0 0.00 0.00 0.00 59 1009.2
20260504081517 66 201 1.0 4.0 0.00 0.00 0.00 53 1009.5
20260504080516 65 201 0.0 5.0 0.00 0.00 0.00 53 1009.6